Photometre #525[NE_1.6] FORTH_RSLab AOT

File : 20221123_525.hum

23/11/2022,05:51:20,TEMP=21.4,BA=5.40,STAT.h
23/11/2022,05:51:26,TEMP=21.4,BA=5.40,STAT.h
23/11/2022,05:55:01,TEMP=21.4,BA=5.40,STAT.h
23/11/2022,05:55:02,TEMP=21.4,BA=5.40,STAT.h
23/11/2022,05:59:22,TEMP=21.4,BA=5.40,STAT.h
23/11/2022,05:59:23,TEMP=21.4,BA=5.40,STAT.h
23/11/2022,06:00:01,TEMP=21.4,BA=5.40,STAT.h
23/11/2022,06:04:34,TEMP=21.4,BA=5.40,STAT.h
23/11/2022,06:05:01,TEMP=21.4,BA=5.40,STAT.h
23/11/2022,06:10:01,TEMP=21.4,BA=5.40,STAT.h
23/11/2022,06:10:53,TEMP=21.4,BA=5.44,STAT.h
23/11/2022,06:10:54,TEMP=21.4,BA=5.44,STAT.h
23/11/2022,06:15:01,TEMP=21.4,BA=5.44,STAT.h
23/11/2022,06:18:56,TEMP=21.4,BA=5.44,STAT.s
23/11/2022,06:20:11,TEMP=21.4,BA=5.48,STAT.s
23/11/2022,06:25:11,TEMP=21.4,BA=5.48,STAT.s
23/11/2022,06:29:02,TEMP=21.4,BA=5.48,STAT.s
23/11/2022,06:30:11,TEMP=21.4,BA=5.48,STAT.s
23/11/2022,06:33:56,TEMP=21.4,BA=5.48,STAT.s
23/11/2022,06:35:11,TEMP=21.4,BA=5.48,STAT.s
23/11/2022,06:39:28,TEMP=21.4,BA=5.48,STAT.s
23/11/2022,06:40:11,TEMP=21.4,BA=5.52,STAT.s
23/11/2022,06:45:11,TEMP=21.4,BA=5.52,STAT.s
23/11/2022,06:45:47,TEMP=21.4,BA=5.52,STAT.s
23/11/2022,06:50:11,TEMP=21.4,BA=5.52,STAT.s
23/11/2022,06:53:04,TEMP=21.4,BA=5.52,STAT.s
23/11/2022,06:55:11,TEMP=21.4,BA=5.52,STAT.s
23/11/2022,07:00:11,TEMP=21.4,BA=5.52,STAT.s
23/11/2022,07:01:35,TEMP=21.4,BA=5.52,STAT.s
23/11/2022,07:05:11,TEMP=21.4,BA=5.52,STAT.s
23/11/2022,07:05:27,TEMP=21.4,BA=5.52,STAT.s
23/11/2022,07:10:11,TEMP=21.4,BA=5.52,STAT.s
23/11/2022,07:15:11,TEMP=21.4,BA=5.52,STAT.s
23/11/2022,07:20:11,TEMP=21.4,BA=5.56,STAT.s
23/11/2022,07:20:27,TEMP=21.4,BA=5.56,STAT.s
23/11/2022,07:25:11,TEMP=21.4,BA=5.56,STAT.s
23/11/2022,07:30:11,TEMP=21.4,BA=5.52,STAT.s
23/11/2022,07:35:11,TEMP=21.4,BA=5.52,STAT.s
23/11/2022,07:35:27,TEMP=21.4,BA=5.52,STAT.s
23/11/2022,07:40:11,TEMP=21.4,BA=5.48,STAT.s
23/11/2022,07:45:11,TEMP=21.4,BA=5.48,STAT.s
23/11/2022,07:50:11,TEMP=21.4,BA=5.52,STAT.s
23/11/2022,07:50:27,TEMP=21.4,BA=5.52,STAT.s
23/11/2022,07:55:11,TEMP=21.4,BA=5.52,STAT.s
23/11/2022,08:00:11,TEMP=21.4,BA=5.52,STAT.s
23/11/2022,08:05:11,TEMP=21.4,BA=5.52,STAT.s
23/11/2022,08:05:27,TEMP=21.4,BA=5.52,STAT.s
23/11/2022,08:10:11,TEMP=21.4,BA=5.56,STAT.s
23/11/2022,08:15:11,TEMP=21.4,BA=5.56,STAT.s
23/11/2022,08:20:11,TEMP=21.4,BA=5.56,STAT.s
23/11/2022,08:20:27,TEMP=21.4,BA=5.56,STAT.s
23/11/2022,08:25:11,TEMP=21.4,BA=5.56,STAT.s
23/11/2022,08:30:11,TEMP=21.4,BA=5.56,STAT.s
23/11/2022,08:35:11,TEMP=21.4,BA=5.56,STAT.s
23/11/2022,08:35:27,TEMP=21.4,BA=5.56,STAT.s
23/11/2022,08:40:11,TEMP=21.4,BA=5.56,STAT.s
23/11/2022,08:45:11,TEMP=21.4,BA=5.56,STAT.s
23/11/2022,08:50:11,TEMP=21.4,BA=5.56,STAT.s
23/11/2022,08:50:27,TEMP=21.4,BA=5.56,STAT.s
23/11/2022,08:55:11,TEMP=21.4,BA=5.56,STAT.s
23/11/2022,09:00:11,TEMP=21.4,BA=5.56,STAT.s
23/11/2022,09:05:11,TEMP=21.4,BA=5.56,STAT.s
23/11/2022,09:05:27,TEMP=21.4,BA=5.56,STAT.s
23/11/2022,09:10:11,TEMP=21.4,BA=5.56,STAT.s
23/11/2022,09:15:11,TEMP=21.4,BA=5.56,STAT.s
23/11/2022,09:20:11,TEMP=21.4,BA=5.56,STAT.s
23/11/2022,09:20:27,TEMP=21.4,BA=5.56,STAT.s
23/11/2022,09:25:11,TEMP=21.4,BA=5.56,STAT.s
23/11/2022,09:30:11,TEMP=21.4,BA=5.56,STAT.s
23/11/2022,09:35:01,TEMP=21.4,BA=5.56,STAT.h
23/11/2022,09:35:15,TEMP=21.4,BA=5.56,STAT.h
23/11/2022,09:35:21,TEMP=21.4,BA=5.56,STAT.h
23/11/2022,09:45:01,TEMP=21.4,BA=5.56,STAT.h
23/11/2022,09:50:01,TEMP=21.4,BA=5.56,STAT.h
23/11/2022,09:50:15,TEMP=21.4,BA=5.48,STAT.h
23/11/2022,09:50:21,TEMP=21.4,BA=5.48,STAT.h
23/11/2022,10:00:01,TEMP=21.4,BA=5.48,STAT.h
23/11/2022,10:05:01,TEMP=21.4,BA=5.44,STAT.h
23/11/2022,10:05:15,TEMP=21.4,BA=5.44,STAT.h
23/11/2022,10:05:21,TEMP=21.4,BA=5.44,STAT.h
23/11/2022,10:15:01,TEMP=21.4,BA=5.52,STAT.h
23/11/2022,10:20:01,TEMP=21.4,BA=5.52,STAT.h
23/11/2022,10:20:15,TEMP=21.4,BA=5.48,STAT.h
23/11/2022,10:20:21,TEMP=21.4,BA=5.48,STAT.h
23/11/2022,10:30:01,TEMP=21.4,BA=5.48,STAT.h
23/11/2022,10:35:01,TEMP=21.4,BA=5.48,STAT.h
23/11/2022,10:35:15,TEMP=21.4,BA=5.48,STAT.h
23/11/2022,10:35:21,TEMP=21.4,BA=5.48,STAT.h
23/11/2022,10:45:01,TEMP=21.4,BA=5.48,STAT.h
23/11/2022,10:50:01,TEMP=21.4,BA=5.48,STAT.h
23/11/2022,10:50:15,TEMP=21.4,BA=5.44,STAT.h
23/11/2022,10:50:21,TEMP=21.4,BA=5.44,STAT.h
23/11/2022,11:00:01,TEMP=21.4,BA=5.44,STAT.h
23/11/2022,11:05:01,TEMP=21.4,BA=5.44,STAT.h
23/11/2022,11:05:15,TEMP=21.4,BA=5.44,STAT.h
23/11/2022,11:05:21,TEMP=21.4,BA=5.44,STAT.h
23/11/2022,11:15:01,TEMP=21.4,BA=5.44,STAT.h
23/11/2022,11:20:01,TEMP=21.4,BA=5.44,STAT.h
23/11/2022,11:20:15,TEMP=21.4,BA=5.44,STAT.h
23/11/2022,11:20:21,TEMP=21.4,BA=5.44,STAT.h
23/11/2022,11:30:01,TEMP=21.4,BA=5.44,STAT.h
23/11/2022,11:35:01,TEMP=21.4,BA=5.40,STAT.h
23/11/2022,11:35:15,TEMP=21.4,BA=5.40,STAT.h
23/11/2022,11:35:21,TEMP=21.4,BA=5.40,STAT.h
23/11/2022,11:45:01,TEMP=21.4,BA=5.40,STAT.h
23/11/2022,11:50:01,TEMP=21.4,BA=5.40,STAT.h
23/11/2022,11:50:15,TEMP=21.4,BA=5.40,STAT.h
23/11/2022,11:50:21,TEMP=21.4,BA=5.40,STAT.h
23/11/2022,12:00:01,TEMP=21.4,BA=5.40,STAT.h
23/11/2022,12:05:01,TEMP=21.4,BA=5.40,STAT.h
23/11/2022,12:05:15,TEMP=21.4,BA=5.40,STAT.h
23/11/2022,12:05:21,TEMP=21.4,BA=5.40,STAT.h
23/11/2022,12:15:01,TEMP=21.4,BA=5.44,STAT.h
23/11/2022,12:20:01,TEMP=21.4,BA=5.44,STAT.h
23/11/2022,12:20:15,TEMP=21.4,BA=5.44,STAT.h
23/11/2022,12:20:21,TEMP=21.4,BA=5.44,STAT.h
23/11/2022,12:30:01,TEMP=21.4,BA=5.44,STAT.h
23/11/2022,12:35:01,TEMP=21.4,BA=5.44,STAT.h
23/11/2022,12:35:15,TEMP=21.4,BA=5.44,STAT.h
23/11/2022,12:35:21,TEMP=21.4,BA=5.44,STAT.h
23/11/2022,12:45:01,TEMP=21.4,BA=5.44,STAT.h
23/11/2022,12:50:01,TEMP=21.4,BA=5.44,STAT.h
23/11/2022,12:50:15,TEMP=21.4,BA=5.44,STAT.h
23/11/2022,12:50:21,TEMP=21.4,BA=5.44,STAT.h
23/11/2022,13:00:01,TEMP=21.4,BA=5.44,STAT.h
23/11/2022,13:05:01,TEMP=21.4,BA=5.44,STAT.h
23/11/2022,13:05:15,TEMP=21.4,BA=5.44,STAT.h
23/11/2022,13:05:21,TEMP=21.4,BA=5.44,STAT.h
23/11/2022,13:09:05,TEMP=21.4,BA=5.44,STAT.h
23/11/2022,13:09:11,TEMP=21.4,BA=5.44,STAT.h
23/11/2022,13:17:36,TEMP=21.4,BA=5.40,STAT.h
23/11/2022,13:17:37,TEMP=21.4,BA=5.40,STAT.h
23/11/2022,13:20:01,TEMP=21.4,BA=5.40,STAT.h
23/11/2022,13:24:53,TEMP=21.4,BA=5.40,STAT.h
23/11/2022,13:24:54,TEMP=21.4,BA=5.40,STAT.h
23/11/2022,13:25:01,TEMP=21.4,BA=5.40,STAT.h
23/11/2022,13:30:01,TEMP=21.4,BA=5.40,STAT.h
23/11/2022,13:31:12,TEMP=21.4,BA=5.44,STAT.h
23/11/2022,13:31:13,TEMP=21.4,BA=5.44,STAT.h
23/11/2022,13:35:01,TEMP=21.4,BA=5.44,STAT.h
23/11/2022,13:36:44,TEMP=21.4,BA=5.44,STAT.h
23/11/2022,13:36:45,TEMP=21.4,BA=5.44,STAT.h
23/11/2022,13:40:01,TEMP=21.4,BA=5.44,STAT.h
23/11/2022,13:41:38,TEMP=21.4,BA=5.40,STAT.h
23/11/2022,13:41:39,TEMP=21.4,BA=5.40,STAT.h
23/11/2022,13:45:01,TEMP=21.4,BA=5.40,STAT.h
23/11/2022,13:50:01,TEMP=21.4,BA=5.40,STAT.h
23/11/2022,13:51:44,TEMP=21.4,BA=5.40,STAT.h
23/11/2022,13:55:01,TEMP=21.4,BA=5.40,STAT.h
23/11/2022,13:59:37,TEMP=21.4,BA=5.40,STAT.h
23/11/2022,13:59:38,TEMP=21.4,BA=5.40,STAT.h
23/11/2022,14:00:01,TEMP=21.4,BA=5.40,STAT.h
23/11/2022,14:05:01,TEMP=21.4,BA=5.40,STAT.h
23/11/2022,14:05:56,TEMP=21.4,BA=5.40,STAT.h
23/11/2022,14:05:57,TEMP=21.4,BA=5.40,STAT.h
23/11/2022,14:10:01,TEMP=21.4,BA=5.40,STAT.h
23/11/2022,14:11:08,TEMP=21.4,BA=5.40,STAT.h
23/11/2022,14:11:09,TEMP=21.4,BA=5.40,STAT.h
23/11/2022,14:15:01,TEMP=21.4,BA=5.40,STAT.h
23/11/2022,14:15:29,TEMP=21.4,BA=5.40,STAT.h
23/11/2022,14:19:10,TEMP=21.4,BA=5.40,STAT.h
23/11/2022,14:19:16,TEMP=21.4,BA=5.40,STAT.h